Year,Month,Day,Hour,Minute,Value (Times are PST for temperature in C)
2011,01,12,00,00,0.10
2011,01,12,00,01,0.10
2011,01,12,00,02,0.10
2011,01,12,00,03,0.10
2011,01,12,00,04,0.10
2011,01,12,00,05,0.10
2011,01,12,00,06,0.10
2011,01,12,00,07,0.10
2011,01,12,00,08,0.10
2011,01,12,00,09,0.10
2011,01,12,00,10,0.10
2011,01,12,00,11,0.10
2011,01,12,00,12,0.10
2011,01,12,00,13,0.10
2011,01,12,00,14,0.10
2011,01,12,00,15,0.10
2011,01,12,00,16,0.10
2011,01,12,00,17,0.10
2011,01,12,00,18,0.10
2011,01,12,00,19,0.10
2011,01,12,00,20,0.10
2011,01,12,00,21,0.10
2011,01,12,00,22,0.10
2011,01,12,00,23,0.10
2011,01,12,00,24,0.10
2011,01,12,00,25,0.10
2011,01,12,00,26,0.10
2011,01,12,00,27,0.10
2011,01,12,00,28,0.10
2011,01,12,00,29,0.10
2011,01,12,00,30,0.10
2011,01,12,00,33,0.10
2011,01,12,00,34,0.10
2011,01,12,00,35,0.10
2011,01,12,00,36,0.10
2011,01,12,00,37,0.10
2011,01,12,00,38,0.10
2011,01,12,00,39,0.10
2011,01,12,00,40,0.10
2011,01,12,00,41,0.10
2011,01,12,00,42,0.10
2011,01,12,00,43,0.10
2011,01,12,00,44,0.10
2011,01,12,00,45,0.10
2011,01,12,00,46,0.10
2011,01,12,00,47,0.10
2011,01,12,00,48,0.10
2011,01,12,00,49,0.10
2011,01,12,00,50,0.10
2011,01,12,00,51,0.10
2011,01,12,00,52,0.10
2011,01,12,00,53,0.10
2011,01,12,00,54,0.10
2011,01,12,00,55,0.10
2011,01,12,00,56,0.20
2011,01,12,00,57,0.20
2011,01,12,00,58,0.20
2011,01,12,00,59,0.20
2011,01,12,01,00,0.20
2011,01,12,01,01,0.20
2011,01,12,01,02,0.20
2011,01,12,01,03,0.20
2011,01,12,01,04,0.20
2011,01,12,01,05,0.20
2011,01,12,01,06,0.20
2011,01,12,01,07,0.20
2011,01,12,01,08,0.20
2011,01,12,01,09,0.20
2011,01,12,01,10,0.20
2011,01,12,01,11,0.20
2011,01,12,01,12,0.20
2011,01,12,01,13,0.30
2011,01,12,01,14,0.30
2011,01,12,01,15,0.30
2011,01,12,01,16,0.30
2011,01,12,01,17,0.30
2011,01,12,01,18,0.30
2011,01,12,01,19,0.30
2011,01,12,01,20,0.30
2011,01,12,01,21,0.30
2011,01,12,01,22,0.30
2011,01,12,01,23,0.30
2011,01,12,01,24,0.30
2011,01,12,01,25,0.30
2011,01,12,01,26,0.30
2011,01,12,01,27,0.30
2011,01,12,01,28,0.30
2011,01,12,01,29,0.30
2011,01,12,01,30,0.30
2011,01,12,01,31,0.30
2011,01,12,01,32,0.30
2011,01,12,01,33,0.40
2011,01,12,01,34,0.40
2011,01,12,01,35,0.40
2011,01,12,01,36,0.40
2011,01,12,01,37,0.40
2011,01,12,01,38,0.40
2011,01,12,01,39,0.40
2011,01,12,01,40,0.40
2011,01,12,01,41,0.40
2011,01,12,01,42,0.40
2011,01,12,01,43,0.40
2011,01,12,01,44,0.40
2011,01,12,01,45,0.40
2011,01,12,01,46,0.40
2011,01,12,01,47,0.40
2011,01,12,01,48,0.40
2011,01,12,01,49,0.40
2011,01,12,01,50,0.40
2011,01,12,01,51,0.40
2011,01,12,01,52,0.40
2011,01,12,01,53,0.40
2011,01,12,01,54,0.40
2011,01,12,01,55,0.40
2011,01,12,01,56,0.40
2011,01,12,01,57,0.40
2011,01,12,01,58,0.40
2011,01,12,01,59,0.40
2011,01,12,02,00,0.40
2011,01,12,02,01,0.40
2011,01,12,02,02,0.40
2011,01,12,02,03,0.40
2011,01,12,02,04,0.40
2011,01,12,02,05,0.40
2011,01,12,02,06,0.50
2011,01,12,02,07,0.50
2011,01,12,02,08,0.40
2011,01,12,02,09,0.40
2011,01,12,02,10,0.40
2011,01,12,02,11,0.50
2011,01,12,02,12,0.50
2011,01,12,02,13,0.50
2011,01,12,02,14,0.50
2011,01,12,02,15,0.50
2011,01,12,02,16,0.50
2011,01,12,02,17,0.50
2011,01,12,02,18,0.50
2011,01,12,02,19,0.50
2011,01,12,02,20,0.50
2011,01,12,02,21,0.50
2011,01,12,02,22,0.50
2011,01,12,02,23,0.50
2011,01,12,02,24,0.50
2011,01,12,02,25,0.50
2011,01,12,02,26,0.50
2011,01,12,02,27,0.50
2011,01,12,02,28,0.50
2011,01,12,02,29,0.50
2011,01,12,02,30,0.60
2011,01,12,02,31,0.60
2011,01,12,02,32,0.60
2011,01,12,02,33,0.60
2011,01,12,02,34,0.60
2011,01,12,02,35,0.60
2011,01,12,02,36,0.60
2011,01,12,02,37,0.60
2011,01,12,02,38,0.60
2011,01,12,02,39,0.70
2011,01,12,02,40,0.70
2011,01,12,02,41,0.70
2011,01,12,02,42,0.70
2011,01,12,02,43,0.70
2011,01,12,02,44,0.70
2011,01,12,02,45,0.70
2011,01,12,02,46,0.70
2011,01,12,02,47,0.70
2011,01,12,02,48,0.70
2011,01,12,02,49,0.70
2011,01,12,02,50,0.70
2011,01,12,02,51,0.80
2011,01,12,02,52,0.80
2011,01,12,02,53,0.80
2011,01,12,02,54,0.80
2011,01,12,02,55,0.80
2011,01,12,02,56,0.80
2011,01,12,02,57,0.80
2011,01,12,02,58,0.80
2011,01,12,02,59,0.80
2011,01,12,03,00,0.80
2011,01,12,03,01,0.80
2011,01,12,03,02,0.80
2011,01,12,03,03,0.80
2011,01,12,03,04,0.80
2011,01,12,03,05,0.80
2011,01,12,03,06,0.80
2011,01,12,03,07,0.80
2011,01,12,03,08,0.80
2011,01,12,03,09,0.80
2011,01,12,03,10,0.80
2011,01,12,03,11,0.80
2011,01,12,03,12,0.80
2011,01,12,03,13,0.80
2011,01,12,03,14,0.80
2011,01,12,03,15,0.80
2011,01,12,03,16,0.80
2011,01,12,03,17,0.80
2011,01,12,03,18,0.80
2011,01,12,03,19,0.90
2011,01,12,03,20,0.90
2011,01,12,03,21,1.00
2011,01,12,03,22,1.00
2011,01,12,03,23,1.10
2011,01,12,03,24,1.10
2011,01,12,03,25,1.10
2011,01,12,03,26,1.10
2011,01,12,03,27,1.10
2011,01,12,03,28,1.10
2011,01,12,03,29,1.10
2011,01,12,03,30,1.10
2011,01,12,03,31,1.10
2011,01,12,03,32,1.20
2011,01,12,03,33,1.20
2011,01,12,03,34,1.20
2011,01,12,03,35,1.20
2011,01,12,03,36,1.30
2011,01,12,03,37,1.30
2011,01,12,03,38,1.20
2011,01,12,03,39,1.20
2011,01,12,03,40,1.20
2011,01,12,03,41,1.20
2011,01,12,03,42,1.20
2011,01,12,03,43,1.30
2011,01,12,04,37,1.30
2011,01,12,04,38,1.40
2011,01,12,04,39,1.40
2011,01,12,04,40,1.40
2011,01,12,04,41,1.40
2011,01,12,04,42,1.40
2011,01,12,04,43,1.40
2011,01,12,04,44,1.40
2011,01,12,04,45,1.40
2011,01,12,04,46,1.50
2011,01,12,04,47,1.50
2011,01,12,04,48,1.50
2011,01,12,04,49,1.50
2011,01,12,04,50,1.40
2011,01,12,04,51,1.50
2011,01,12,04,52,1.50
2011,01,12,04,53,1.40
2011,01,12,04,54,1.40
2011,01,12,04,55,1.40
2011,01,12,04,56,1.40
2011,01,12,04,57,1.40
2011,01,12,04,58,1.40
2011,01,12,04,59,1.40
2011,01,12,05,00,1.40
2011,01,12,05,01,1.40
2011,01,12,05,02,1.40
2011,01,12,05,03,1.40
2011,01,12,05,04,1.40
2011,01,12,05,05,1.40
2011,01,12,05,06,1.40
2011,01,12,05,07,1.40
2011,01,12,05,08,1.40
2011,01,12,05,09,1.40
2011,01,12,05,10,1.40
2011,01,12,05,11,1.40
2011,01,12,05,12,1.30
2011,01,12,05,13,1.30
2011,01,12,05,14,1.30
2011,01,12,05,15,1.30
2011,01,12,05,16,1.30
2011,01,12,05,17,1.30
2011,01,12,05,18,1.30
2011,01,12,05,19,1.30
2011,01,12,05,20,1.30
2011,01,12,05,21,1.30
2011,01,12,05,22,1.30
2011,01,12,05,23,1.30
2011,01,12,05,24,1.30
2011,01,12,05,25,1.30
2011,01,12,05,26,1.30
2011,01,12,05,27,1.30
2011,01,12,05,28,1.30
2011,01,12,05,29,1.30
2011,01,12,05,30,1.30
2011,01,12,05,31,1.30
2011,01,12,05,32,1.30
2011,01,12,05,33,1.30
2011,01,12,05,34,1.30
2011,01,12,05,35,1.20
2011,01,12,05,36,1.20
2011,01,12,05,37,1.10
2011,01,12,05,38,1.10
2011,01,12,05,39,1.10
2011,01,12,05,40,1.10
2011,01,12,05,41,1.10
2011,01,12,05,42,1.10
2011,01,12,05,43,1.10
2011,01,12,05,44,1.20
2011,01,12,05,45,1.20
2011,01,12,05,46,1.20
2011,01,12,05,47,1.20
2011,01,12,05,48,1.20
2011,01,12,05,49,1.20
2011,01,12,05,50,1.20
2011,01,12,05,51,1.10
2011,01,12,05,52,1.10
2011,01,12,05,53,1.10
2011,01,12,05,54,1.10
2011,01,12,05,55,1.10
2011,01,12,05,56,1.10
2011,01,12,05,57,1.00
2011,01,12,05,58,1.00
2011,01,12,05,59,1.00
2011,01,12,06,00,1.00
2011,01,12,06,01,1.00
2011,01,12,06,02,1.00
2011,01,12,06,03,1.00
2011,01,12,06,04,1.00
2011,01,12,06,05,1.00
2011,01,12,06,06,1.00
2011,01,12,06,07,1.00
2011,01,12,06,08,0.90
2011,01,12,06,09,0.90
2011,01,12,06,10,0.90
2011,01,12,06,11,0.90
2011,01,12,06,12,0.90
2011,01,12,06,13,0.90
2011,01,12,06,14,0.90
2011,01,12,06,15,0.90
2011,01,12,06,16,0.90
2011,01,12,06,17,0.90
2011,01,12,06,18,0.90
2011,01,12,06,19,0.80
2011,01,12,06,20,0.80
2011,01,12,06,21,0.80
2011,01,12,06,22,0.80
2011,01,12,06,23,0.80
2011,01,12,06,24,0.80
2011,01,12,06,25,0.80
2011,01,12,06,26,0.80
2011,01,12,06,27,0.80
2011,01,12,06,28,0.80
2011,01,12,06,29,0.80
2011,01,12,06,30,0.80
2011,01,12,06,31,0.80
2011,01,12,06,32,0.80
2011,01,12,06,33,0.80
2011,01,12,06,34,0.80
2011,01,12,06,35,0.80
2011,01,12,06,36,0.80
2011,01,12,06,37,0.80
2011,01,12,06,38,0.80
2011,01,12,06,39,0.80
2011,01,12,06,40,0.80
2011,01,12,06,41,0.80
2011,01,12,06,42,0.80
2011,01,12,06,43,0.80
2011,01,12,06,44,0.80
2011,01,12,06,45,0.80
2011,01,12,06,46,0.80
2011,01,12,06,47,0.80
2011,01,12,06,48,0.80
2011,01,12,06,49,0.80
2011,01,12,06,50,0.80
2011,01,12,06,51,0.80
2011,01,12,06,52,0.80
2011,01,12,06,53,0.80
2011,01,12,06,54,0.80
2011,01,12,06,55,0.80
2011,01,12,06,56,0.80
2011,01,12,06,57,0.80
2011,01,12,06,58,0.80
2011,01,12,06,59,0.80
2011,01,12,07,00,0.80
2011,01,12,07,01,0.80
2011,01,12,07,02,0.80
2011,01,12,07,03,0.80
2011,01,12,07,04,0.90
2011,01,12,07,05,0.90
2011,01,12,07,06,0.90
2011,01,12,07,07,0.90
2011,01,12,07,08,1.00
2011,01,12,07,09,1.00
2011,01,12,07,10,1.00
2011,01,12,07,11,1.00
2011,01,12,07,12,1.10
2011,01,12,07,13,1.20
2011,01,12,07,14,1.20
2011,01,12,07,15,1.20
2011,01,12,07,16,1.10
2011,01,12,07,17,1.10
2011,01,12,07,18,1.10
2011,01,12,07,19,1.10
2011,01,12,07,20,1.10
2011,01,12,07,21,1.00
2011,01,12,07,22,1.00
2011,01,12,07,23,1.00
2011,01,12,07,24,0.90
2011,01,12,07,25,0.90
2011,01,12,07,26,0.90
2011,01,12,07,27,0.80
2011,01,12,07,28,0.80
2011,01,12,07,29,0.80
2011,01,12,07,30,0.80
2011,01,12,07,31,0.80
2011,01,12,07,32,0.90
2011,01,12,07,33,0.90
2011,01,12,07,34,0.90
2011,01,12,07,35,1.00
2011,01,12,07,36,1.00
2011,01,12,07,37,1.00
2011,01,12,07,38,1.00
2011,01,12,07,39,1.00
2011,01,12,07,40,1.00
2011,01,12,07,41,1.00
2011,01,12,07,42,1.00
2011,01,12,07,43,1.10
2011,01,12,07,44,1.20
2011,01,12,07,45,1.40
2011,01,12,07,46,1.60
2011,01,12,07,47,2.00
2011,01,12,07,48,2.80
2011,01,12,07,49,4.00
2011,01,12,07,50,5.00
2011,01,12,07,51,5.70
2011,01,12,07,52,6.20
2011,01,12,07,53,6.50
2011,01,12,07,54,6.60
2011,01,12,07,55,6.70
2011,01,12,07,56,6.80
2011,01,12,07,57,6.90
2011,01,12,07,58,6.90
2011,01,12,07,59,6.90
2011,01,12,08,00,6.90
2011,01,12,08,01,6.90
2011,01,12,08,02,6.90
2011,01,12,08,03,6.90
2011,01,12,08,04,7.00
2011,01,12,08,05,7.00
2011,01,12,08,06,7.10
2011,01,12,08,07,7.10
2011,01,12,08,08,7.10
2011,01,12,08,09,7.10
2011,01,12,08,10,7.10
2011,01,12,08,11,7.10
2011,01,12,08,12,7.10
2011,01,12,08,13,7.10
2011,01,12,08,14,7.10
2011,01,12,08,15,7.10
2011,01,12,08,16,7.10
2011,01,12,08,17,7.10
2011,01,12,08,18,7.10
2011,01,12,08,19,7.10
2011,01,12,08,20,7.10
2011,01,12,08,21,7.10
2011,01,12,08,22,7.20
2011,01,12,08,23,7.20
2011,01,12,08,24,7.30
2011,01,12,08,25,7.30
2011,01,12,08,26,7.30
2011,01,12,08,27,7.30
2011,01,12,08,28,7.30
2011,01,12,08,29,7.30
2011,01,12,08,30,7.30
2011,01,12,08,31,7.40
2011,01,12,08,32,7.50
2011,01,12,08,33,7.60
2011,01,12,08,34,7.60
2011,01,12,08,35,7.60
2011,01,12,08,36,7.70
2011,01,12,08,37,7.70
2011,01,12,08,38,7.70
2011,01,12,08,39,7.70
2011,01,12,08,40,7.70
2011,01,12,08,41,7.70
2011,01,12,08,42,7.70
2011,01,12,08,43,7.80
2011,01,12,08,44,7.80
2011,01,12,08,45,7.80
2011,01,12,08,46,7.80
2011,01,12,08,47,7.80
2011,01,12,08,48,7.90
2011,01,12,08,49,7.90
2011,01,12,08,50,7.90
2011,01,12,08,51,7.90
2011,01,12,08,52,7.90
2011,01,12,08,53,7.90
2011,01,12,08,54,7.90
2011,01,12,08,55,7.90
2011,01,12,08,56,7.80
2011,01,12,08,57,7.80
2011,01,12,08,58,7.80
2011,01,12,08,59,7.80
2011,01,12,09,00,7.80
2011,01,12,09,01,7.80
2011,01,12,09,02,7.90
2011,01,12,09,03,7.90
2011,01,12,09,04,7.90
2011,01,12,09,05,7.90
2011,01,12,09,06,8.00
2011,01,12,09,07,7.90
2011,01,12,09,08,7.90
2011,01,12,09,09,7.90
2011,01,12,09,10,7.90
2011,01,12,09,11,8.00
2011,01,12,09,12,8.00
2011,01,12,09,13,8.00
2011,01,12,09,14,8.10
2011,01,12,09,15,8.10
2011,01,12,09,16,8.10
2011,01,12,09,17,8.10
2011,01,12,09,18,8.10
2011,01,12,09,19,8.10
2011,01,12,09,20,8.10
2011,01,12,09,21,8.00
2011,01,12,09,22,8.00
2011,01,12,09,23,8.00
2011,01,12,09,24,8.00
2011,01,12,09,25,8.10
2011,01,12,09,26,8.10
2011,01,12,09,27,8.10
2011,01,12,09,28,8.20
2011,01,12,09,29,8.20
2011,01,12,09,30,8.20
2011,01,12,09,31,8.30
2011,01,12,09,32,8.30
2011,01,12,09,33,8.40
2011,01,12,09,34,8.40
2011,01,12,09,35,8.50
2011,01,12,09,36,8.50
2011,01,12,09,37,8.60
2011,01,12,09,38,8.60
2011,01,12,09,39,8.60
2011,01,12,09,40,8.70
2011,01,12,09,41,8.70
2011,01,12,09,42,8.70
2011,01,12,09,43,8.70
2011,01,12,09,44,8.70
2011,01,12,09,45,8.70
2011,01,12,09,46,8.70
2011,01,12,09,47,8.70
2011,01,12,09,48,8.70
2011,01,12,09,49,8.70
2011,01,12,09,50,8.70
2011,01,12,09,51,8.70
2011,01,12,09,52,8.70
2011,01,12,09,53,8.70
2011,01,12,09,54,8.70
2011,01,12,09,55,8.70
2011,01,12,09,56,8.70
2011,01,12,09,57,8.70
2011,01,12,09,58,8.80
2011,01,12,09,59,8.80
2011,01,12,10,00,8.90
2011,01,12,10,01,8.90
2011,01,12,10,02,8.90
2011,01,12,10,03,8.90
2011,01,12,10,04,8.90
2011,01,12,10,05,8.90
2011,01,12,10,06,8.90
2011,01,12,10,07,8.90
2011,01,12,10,08,8.90
2011,01,12,10,09,8.90
2011,01,12,10,10,8.90
2011,01,12,10,11,8.90
2011,01,12,10,12,8.90
2011,01,12,10,13,8.90
2011,01,12,10,14,8.90
2011,01,12,10,15,8.90
2011,01,12,10,16,9.00
2011,01,12,10,17,9.00
2011,01,12,10,18,9.00
2011,01,12,10,19,9.00
2011,01,12,10,20,9.10
2011,01,12,10,21,9.10
2011,01,12,10,22,9.10
2011,01,12,10,23,9.10
2011,01,12,10,24,9.10
2011,01,12,10,25,9.20
2011,01,12,10,26,9.20
2011,01,12,10,27,9.20
2011,01,12,10,28,9.20
2011,01,12,10,29,9.20
2011,01,12,10,30,9.20
2011,01,12,10,31,9.20
2011,01,12,10,32,9.20
2011,01,12,10,33,9.30
2011,01,12,10,34,9.20
2011,01,12,10,35,9.20
2011,01,12,10,36,9.20
2011,01,12,10,37,9.20
2011,01,12,10,38,9.30
2011,01,12,10,39,9.20
2011,01,12,10,40,9.20
2011,01,12,10,41,9.20
2011,01,12,10,42,9.20
2011,01,12,10,43,9.30
2011,01,12,10,44,9.20
2011,01,12,10,45,9.20
2011,01,12,10,46,9.20
2011,01,12,10,47,9.20
2011,01,12,10,48,9.20
2011,01,12,10,49,9.20
2011,01,12,10,50,9.20
2011,01,12,10,51,9.10
2011,01,12,10,52,9.10
2011,01,12,10,53,9.10
2011,01,12,10,54,9.10
2011,01,12,10,55,9.10
2011,01,12,10,56,9.00
2011,01,12,10,57,9.00
2011,01,12,10,58,8.90
2011,01,12,10,59,8.80
2011,01,12,11,00,8.80
2011,01,12,11,01,8.70
2011,01,12,11,02,8.70
2011,01,12,11,03,8.70
2011,01,12,11,04,8.60
2011,01,12,11,05,8.50
2011,01,12,11,06,8.50
2011,01,12,11,07,8.50
2011,01,12,11,08,8.40
2011,01,12,11,09,8.40
2011,01,12,11,10,8.30
2011,01,12,11,11,8.30
2011,01,12,11,12,8.20
2011,01,12,11,13,8.20
2011,01,12,11,14,8.20
2011,01,12,11,15,8.20
2011,01,12,11,16,8.20
2011,01,12,11,17,8.10
2011,01,12,11,18,8.10
2011,01,12,11,19,8.10
2011,01,12,11,20,8.10
2011,01,12,11,21,8.10
2011,01,12,11,22,8.10
2011,01,12,11,23,8.10
2011,01,12,11,24,8.00
2011,01,12,11,25,8.00
2011,01,12,11,26,7.90
2011,01,12,11,27,7.90
2011,01,12,11,28,7.90
2011,01,12,11,29,7.80
2011,01,12,11,30,7.80
2011,01,12,11,31,7.80
2011,01,12,11,32,7.80
2011,01,12,11,33,7.80
2011,01,12,11,34,7.80
2011,01,12,11,35,7.70
2011,01,12,11,36,7.70
2011,01,12,11,37,7.70
2011,01,12,11,38,7.70
2011,01,12,11,39,7.60
2011,01,12,11,40,7.60
2011,01,12,11,41,7.60
2011,01,12,11,42,7.60
2011,01,12,11,43,7.60
2011,01,12,11,44,7.60
2011,01,12,11,45,7.60
2011,01,12,11,46,7.60
2011,01,12,11,47,7.60
2011,01,12,11,48,7.60
2011,01,12,11,49,7.60
2011,01,12,11,50,7.60
2011,01,12,11,51,7.60
2011,01,12,11,52,7.60
2011,01,12,11,53,7.60
2011,01,12,11,54,7.60
2011,01,12,11,55,7.60
2011,01,12,11,56,7.60
2011,01,12,11,57,7.60
2011,01,12,11,58,7.60
2011,01,12,11,59,7.60
2011,01,12,12,00,7.60
2011,01,12,12,01,7.60
2011,01,12,12,02,7.60
2011,01,12,12,03,7.60
2011,01,12,12,04,7.60
2011,01,12,12,05,7.60
2011,01,12,12,06,7.60
2011,01,12,12,07,7.60
2011,01,12,12,08,7.60
2011,01,12,12,09,7.60
2011,01,12,12,10,7.60
2011,01,12,12,11,7.60
2011,01,12,12,12,7.60
2011,01,12,12,13,7.60
2011,01,12,12,14,7.60
2011,01,12,12,15,7.60
2011,01,12,12,16,7.60
2011,01,12,12,17,7.60
2011,01,12,12,18,7.60
2011,01,12,12,19,7.60
2011,01,12,12,20,7.60
2011,01,12,12,21,7.60
2011,01,12,12,22,7.60
2011,01,12,12,23,7.70
2011,01,12,12,24,7.70
2011,01,12,12,25,7.70
2011,01,12,12,26,7.70
2011,01,12,12,27,7.70
2011,01,12,12,28,7.70
2011,01,12,12,29,7.70
2011,01,12,12,30,7.60
2011,01,12,12,31,7.60
2011,01,12,12,32,7.60
2011,01,12,12,33,7.50
2011,01,12,12,34,7.50
2011,01,12,12,35,7.50
2011,01,12,12,36,7.40
2011,01,12,12,37,7.40
2011,01,12,12,38,7.40
2011,01,12,12,39,7.40
2011,01,12,12,40,7.40
2011,01,12,12,41,7.40
2011,01,12,12,42,7.30
2011,01,12,12,43,7.30
2011,01,12,12,44,7.30
2011,01,12,12,45,7.30
2011,01,12,12,46,7.30
2011,01,12,12,47,7.30
2011,01,12,12,48,7.30
2011,01,12,12,49,7.30
2011,01,12,12,50,7.30
2011,01,12,12,51,7.30
2011,01,12,12,52,7.30
2011,01,12,12,53,7.30
2011,01,12,12,54,7.30
2011,01,12,12,55,7.30
2011,01,12,12,56,7.30
2011,01,12,12,57,7.30
2011,01,12,12,58,7.30
2011,01,12,12,59,7.30
2011,01,12,13,00,7.20
2011,01,12,13,01,7.20
2011,01,12,13,02,7.20
2011,01,12,13,03,7.10
2011,01,12,13,04,7.10
2011,01,12,13,05,7.10
2011,01,12,13,06,7.00
2011,01,12,13,07,7.00
2011,01,12,13,08,7.00
2011,01,12,13,09,6.90
2011,01,12,13,10,6.90
2011,01,12,13,11,6.90
2011,01,12,13,12,6.90
2011,01,12,13,13,6.80
2011,01,12,13,14,6.80
2011,01,12,13,15,6.80
2011,01,12,13,16,6.80
2011,01,12,13,17,6.70
2011,01,12,13,18,6.70
2011,01,12,13,19,6.70
2011,01,12,13,20,6.60
2011,01,12,13,21,6.60
2011,01,12,13,22,6.60
2011,01,12,13,23,6.60
2011,01,12,13,24,6.60
2011,01,12,13,25,6.50
2011,01,12,13,26,6.40
2011,01,12,13,27,6.40
2011,01,12,13,28,6.40
2011,01,12,13,29,6.40
2011,01,12,13,30,6.40
2011,01,12,13,31,6.40
2011,01,12,13,32,6.40
2011,01,12,13,33,6.40
2011,01,12,13,34,6.40
2011,01,12,13,35,6.40
2011,01,12,13,36,6.40
2011,01,12,13,37,6.40
2011,01,12,13,38,6.30
2011,01,12,13,39,6.30
2011,01,12,13,40,6.30
2011,01,12,13,41,6.30
2011,01,12,13,42,6.30
2011,01,12,13,43,6.30
2011,01,12,13,44,6.20
2011,01,12,13,45,6.20
2011,01,12,13,46,6.20
2011,01,12,13,47,6.20
2011,01,12,13,48,6.20
2011,01,12,13,49,6.20
2011,01,12,13,50,6.20
2011,01,12,13,51,6.20
2011,01,12,13,52,6.20
2011,01,12,13,53,6.20
2011,01,12,13,54,6.20
2011,01,12,13,55,6.20
2011,01,12,13,56,6.20
2011,01,12,13,57,6.20
2011,01,12,13,58,6.20
2011,01,12,13,59,6.20
2011,01,12,14,00,6.20
2011,01,12,14,01,6.20
2011,01,12,14,02,6.20
2011,01,12,14,03,6.20
2011,01,12,14,04,6.20
2011,01,12,14,05,6.20
2011,01,12,14,06,6.20
2011,01,12,14,07,6.20
2011,01,12,14,08,6.20
2011,01,12,14,09,6.20
2011,01,12,14,10,6.20
2011,01,12,14,11,6.20
2011,01,12,14,12,6.20
2011,01,12,14,13,6.20
2011,01,12,14,14,6.20
2011,01,12,14,15,6.20
2011,01,12,14,16,6.20
2011,01,12,14,17,6.20
2011,01,12,14,18,6.20
2011,01,12,14,19,6.20
2011,01,12,14,20,6.20
2011,01,12,14,21,6.20
2011,01,12,14,22,6.20
2011,01,12,14,23,6.20
2011,01,12,14,24,6.20
2011,01,12,14,25,6.20
2011,01,12,14,26,6.20
2011,01,12,14,27,6.30
2011,01,12,14,28,6.30
2011,01,12,14,29,6.40
2011,01,12,14,30,6.40
2011,01,12,14,31,6.40
2011,01,12,14,32,6.40
2011,01,12,14,33,6.50
2011,01,12,14,34,6.60
2011,01,12,14,35,6.60
2011,01,12,14,36,6.60
2011,01,12,14,37,6.60
2011,01,12,14,38,6.60
2011,01,12,14,39,6.60
2011,01,12,14,40,6.60
2011,01,12,14,41,6.60
2011,01,12,14,42,6.60
2011,01,12,14,43,6.60
2011,01,12,14,44,6.60
2011,01,12,14,45,6.60
2011,01,12,14,46,6.60
2011,01,12,14,47,6.60
2011,01,12,14,48,6.60
2011,01,12,14,49,6.60
2011,01,12,14,50,6.60
2011,01,12,14,51,6.60
2011,01,12,14,52,6.60
2011,01,12,14,53,6.60
2011,01,12,14,54,6.70
2011,01,12,14,55,6.70
2011,01,12,14,56,6.70
2011,01,12,14,57,6.70
2011,01,12,14,58,6.80
2011,01,12,14,59,6.80
2011,01,12,15,00,6.80
2011,01,12,15,01,6.80
2011,01,12,15,02,6.80
2011,01,12,15,03,6.80
2011,01,12,15,04,6.80
2011,01,12,15,05,6.80
2011,01,12,15,06,6.80
2011,01,12,15,07,6.80
2011,01,12,15,08,6.80
2011,01,12,15,09,6.80
2011,01,12,15,10,6.80
2011,01,12,15,11,6.80
2011,01,12,15,12,6.70
2011,01,12,15,13,6.80
2011,01,12,15,14,6.70
2011,01,12,15,15,6.70
2011,01,12,15,16,6.70
2011,01,12,15,17,6.70
2011,01,12,15,18,6.70
2011,01,12,15,19,6.70
2011,01,12,15,20,6.70
2011,01,12,15,21,6.60
2011,01,12,15,22,6.60
2011,01,12,15,23,6.60
2011,01,12,15,24,6.60
2011,01,12,15,25,6.60
2011,01,12,15,26,6.60
2011,01,12,15,27,6.60
2011,01,12,15,28,6.60
2011,01,12,15,29,6.60
2011,01,12,15,30,6.60
2011,01,12,15,31,6.60
2011,01,12,15,32,6.60
2011,01,12,15,33,6.60
2011,01,12,15,34,6.60
2011,01,12,15,35,6.60
2011,01,12,15,36,6.60
2011,01,12,15,37,6.60
2011,01,12,15,38,6.60
2011,01,12,15,39,6.60
2011,01,12,15,40,6.60
2011,01,12,15,41,6.60
2011,01,12,15,42,6.60
2011,01,12,15,43,6.60
2011,01,12,15,44,6.60
2011,01,12,15,45,6.60
2011,01,12,15,46,6.60
2011,01,12,15,47,6.50
2011,01,12,15,48,6.40
2011,01,12,15,49,6.40
2011,01,12,15,50,6.40
2011,01,12,15,51,6.40
2011,01,12,15,52,6.40
2011,01,12,15,53,6.40
2011,01,12,15,54,6.40
2011,01,12,15,55,6.40
2011,01,12,15,56,6.40
2011,01,12,15,57,6.40
2011,01,12,15,58,6.40
2011,01,12,15,59,6.40
2011,01,12,16,00,6.40
2011,01,12,16,01,6.40
2011,01,12,16,02,6.40
2011,01,12,16,03,6.40
2011,01,12,16,04,6.40
2011,01,12,16,05,6.40
2011,01,12,16,06,6.40
2011,01,12,16,07,6.40
2011,01,12,16,08,6.40
2011,01,12,16,09,6.40
2011,01,12,16,10,6.40
2011,01,12,16,11,6.40
2011,01,12,16,12,6.40
2011,01,12,16,13,6.40
2011,01,12,16,14,6.40
2011,01,12,16,15,6.40
2011,01,12,16,16,6.40
2011,01,12,16,17,6.40
2011,01,12,16,18,6.30
2011,01,12,16,19,6.30
2011,01,12,16,20,6.30
2011,01,12,16,21,6.30
2011,01,12,16,22,6.30
2011,01,12,16,23,6.30
2011,01,12,16,24,6.30
2011,01,12,16,25,6.30
2011,01,12,16,26,6.30
2011,01,12,16,27,6.30
2011,01,12,16,28,6.30
2011,01,12,16,29,6.20
2011,01,12,16,30,6.20
2011,01,12,16,31,6.20
2011,01,12,16,32,6.20
2011,01,12,16,33,6.20
2011,01,12,16,34,6.20
2011,01,12,16,35,6.20
2011,01,12,16,36,6.20
2011,01,12,16,37,6.20
2011,01,12,16,38,6.20
2011,01,12,16,39,6.20
2011,01,12,16,40,6.20
2011,01,12,16,41,6.20
2011,01,12,16,42,6.20
2011,01,12,16,43,6.20
2011,01,12,16,44,6.20
2011,01,12,16,45,6.20
2011,01,12,16,46,6.20
2011,01,12,16,47,6.20
2011,01,12,16,48,6.20
2011,01,12,16,49,6.20
2011,01,12,16,50,6.20
2011,01,12,16,51,6.20
2011,01,12,16,52,6.20
2011,01,12,16,53,6.20
2011,01,12,16,54,6.20
2011,01,12,16,55,6.20
2011,01,12,16,56,6.20
2011,01,12,16,57,6.20
2011,01,12,16,58,6.20
2011,01,12,16,59,6.20
2011,01,12,17,00,6.20
2011,01,12,17,01,6.20
2011,01,12,17,02,6.10
2011,01,12,17,03,6.10
2011,01,12,17,04,6.10
2011,01,12,17,05,6.10
2011,01,12,17,06,6.10
2011,01,12,17,07,6.10
2011,01,12,17,08,6.00
2011,01,12,17,09,6.00
2011,01,12,17,10,6.00
2011,01,12,17,11,6.00
2011,01,12,17,12,6.00
2011,01,12,17,13,6.00
2011,01,12,17,14,6.00
2011,01,12,17,15,6.00
2011,01,12,17,16,6.00
2011,01,12,17,17,6.00
2011,01,12,17,18,6.00
2011,01,12,17,19,5.90
2011,01,12,17,20,5.90
2011,01,12,17,21,5.90
2011,01,12,17,22,6.00
2011,01,12,17,23,6.00
2011,01,12,17,24,6.00
2011,01,12,17,25,6.00
2011,01,12,17,26,6.00
2011,01,12,17,27,6.00
2011,01,12,17,28,6.00
2011,01,12,17,29,6.00
2011,01,12,17,30,6.00
2011,01,12,17,31,6.00
2011,01,12,17,32,6.00
2011,01,12,17,33,6.00
2011,01,12,17,34,6.00
2011,01,12,17,35,6.00
2011,01,12,17,36,6.00
2011,01,12,17,37,6.00
2011,01,12,17,38,6.00
2011,01,12,17,39,6.00
2011,01,12,17,40,6.00
2011,01,12,17,41,6.00
2011,01,12,17,42,6.00
2011,01,12,17,43,6.00
2011,01,12,17,44,5.90
2011,01,12,17,45,5.90
2011,01,12,17,46,5.90
2011,01,12,17,47,5.90
2011,01,12,17,48,5.90
2011,01,12,17,49,5.80
2011,01,12,17,50,5.80
2011,01,12,17,51,5.80
2011,01,12,17,52,5.80
2011,01,12,17,53,5.70
2011,01,12,17,54,5.70
2011,01,12,17,55,5.70
2011,01,12,17,56,5.70
2011,01,12,17,57,5.70
2011,01,12,17,58,5.70
2011,01,12,17,59,5.70
2011,01,12,18,00,5.70
2011,01,12,18,01,5.70
2011,01,12,18,02,5.70
2011,01,12,18,03,5.70
2011,01,12,18,04,5.70
2011,01,12,18,05,5.70
2011,01,12,18,06,5.60
2011,01,12,18,07,5.60
2011,01,12,18,08,5.60
2011,01,12,18,09,5.60
2011,01,12,18,10,5.50
2011,01,12,18,11,5.50
2011,01,12,18,12,5.50
2011,01,12,18,13,5.50
2011,01,12,18,14,5.50
2011,01,12,18,15,5.40
2011,01,12,18,16,5.40
2011,01,12,18,17,5.40
2011,01,12,18,18,5.40
2011,01,12,18,19,5.40
2011,01,12,18,20,5.30
2011,01,12,18,21,5.30
2011,01,12,18,22,5.30
2011,01,12,18,23,5.40
2011,01,12,18,24,5.40
2011,01,12,18,25,5.40
2011,01,12,18,26,5.40
2011,01,12,18,27,5.40
2011,01,12,18,28,5.40
2011,01,12,18,29,5.40
2011,01,12,18,30,5.40
2011,01,12,18,31,5.40
2011,01,12,18,32,5.40
2011,01,12,18,33,5.40
2011,01,12,18,34,5.30
2011,01,12,18,35,5.30
2011,01,12,18,36,5.30
2011,01,12,18,37,5.30
2011,01,12,18,38,5.30
2011,01,12,18,39,5.30
2011,01,12,18,40,5.30
2011,01,12,18,41,5.30
2011,01,12,18,42,5.30
2011,01,12,18,43,5.20
2011,01,12,18,44,5.20
2011,01,12,18,45,5.20
2011,01,12,18,46,5.20
2011,01,12,18,47,5.20
2011,01,12,18,48,5.10
2011,01,12,18,49,5.20
2011,01,12,18,50,5.20
2011,01,12,18,51,5.20
2011,01,12,18,52,5.20
2011,01,12,18,53,5.10
2011,01,12,18,54,5.20
2011,01,12,18,55,5.20
2011,01,12,18,56,5.20
2011,01,12,18,57,5.20
2011,01,12,18,58,5.30
2011,01,12,18,59,5.30
2011,01,12,19,00,5.30
2011,01,12,19,01,5.30